Location: Creston
(40.9870°N, 81.8938°W)
Time: 09:36:58
(UTC+00:00)

Cosmos 1825 - Pass Details

Date: 29 October 2020
Orbit: 502 x 508 km, 82.5° (Epoch: 26 November)

Event Time Altitude Azimuth Distance (km) Brightness Sun altitude
Rises 23:30:46 0° 5° (N) 2,620 5.7 -12.7°
Reaches altitude 10° 23:33:11 10° 19° (NNE) 1,728 4.6 -13.1°
Maximum altitude 23:36:21 25° 75° (ENE) 1,059 3.2 -13.7°
Enters shadow 23:36:54 24° 90° (E) 1,083 3.2 -13.8°
